| time (UTC) | temp C | wind direction | speed KPH | gust KPH | rain 1hr cm | rain 24hr cm | rain mn cm | humidity % | barometer mb |
| 20260505013059 | -17 | 0.0 | 0.0 | 0.00 | 0.00 | 0.00 | 1006.4 | ||
| 20260505012559 | -17 | 0.0 | 0.0 | 0.00 | 0.00 | 0.00 | 1006.4 | ||
| 20260505012059 | -17 | 0.0 | 0.0 | 0.00 | 0.00 | 0.00 | 1006.5 | ||
| 20260505011710 | -17 | 0.0 | 0.0 | 0.00 | 0.00 | 0.00 | 1006.5 | ||
| 20260505011601 | -17 | 0.0 | 0.0 | 0.00 | 0.00 | 0.00 | 1006.5 | ||
| 20260505011056 | -17 | 0.0 | 0.0 | 0.00 | 0.00 | 0.00 | 1006.4 | ||
| 20260505010559 | -17 | 0.0 | 0.0 | 0.00 | 0.00 | 0.00 | 1006.4 | ||
| 20260505010116 | -17 | 0.0 | 0.0 | 0.00 | 0.00 | 0.00 | 1006.5 | ||
| 20260505005718 | -17 | 0.0 | 0.0 | 0.00 | 0.00 | 0.00 | 1006.3 | ||
| 20260505005059 | -17 | 0.0 | 0.0 | 0.00 | 0.00 | 0.00 | 1006.2 | ||
| 20260505004559 | -17 | 0.0 | 0.0 | 0.00 | 0.00 | 0.00 | 1006.2 | ||
| 20260505004100 | -17 | 0.0 | 0.0 | 0.00 | 0.00 | 0.00 | 1006.2 | ||
| 20260505003557 | -17 | 0.0 | 0.0 | 0.00 | 0.00 | 0.00 | 1006.0 | ||
| 20260505003106 | -17 | 0.0 | 0.0 | 0.00 | 0.00 | 0.00 | 1006.1 | ||
| 20260505002558 | -17 | 0.0 | 0.0 | 0.00 | 0.00 | 0.00 | 1006.1 | ||
| 20260505002058 | -17 | 0.0 | 0.0 | 0.00 | 0.00 | 0.00 | 1006.0 | ||
| 20260505001616 | -17 | 0.0 | 0.0 | 0.00 | 0.00 | 0.00 | 1006.0 | ||
| 20260505001059 | -17 | 0.0 | 0.0 | 0.00 | 0.00 | 0.00 | 1006.0 | ||
| 20260505000559 | -17 | 0.0 | 0.0 | 0.00 | 0.00 | 0.00 | 1006.0 | ||
| 20260504235557 | -17 | 0.0 | 0.0 | 0.00 | 0.00 | 0.00 | 1005.9 | ||
| 20260504235059 | -17 | 0.0 | 0.0 | 0.00 | 0.00 | 0.00 | 38 | 1005.9 | |
| 20260504234628 | -17 | 0 | 0.0 | 0.0 | 0.00 | 0.00 | 0.00 | 38 | 1005.6 |
| 20260504234557 | -17 | 0 | 0.0 | 0.0 | 0.00 | 0.00 | 0.00 | 38 | 1005.6 |
| 20260504234057 | 18 | 0 | 0.0 | 0.0 | 0.00 | 0.00 | 0.00 | 38 | 1005.6 |
| 20260504233600 | 18 | 0 | 0.0 | 0.0 | 0.00 | 0.00 | 0.00 | 37 | 1005.6 |
| 20260504233100 | 18 | 0 | 0.0 | 1.6 | 0.00 | 0.00 | 0.00 | 37 | 1005.5 |
| 20260504232602 | 18 | 0 | 0.0 | 1.6 | 0.00 | 0.00 | 0.00 | 37 | 1005.5 |
| 20260504232059 | 19 | 0 | 0.0 | 1.6 | 0.00 | 0.00 | 0.00 | 34 | 1005.6 |
| 20260504231559 | 19 | 253 | 0.0 | 0.0 | 0.00 | 0.00 | 0.00 | 35 | 1005.7 |
| 20260504231057 | 19 | 0 | 0.0 | 6.4 | 0.00 | 0.00 | 0.00 | 34 | 1005.6 |
| 20260504230600 | 19 | 0 | 0.0 | 6.4 | 0.00 | 0.00 | 0.00 | 34 | 1005.6 |
| 20260504230057 | 19 | 0 | 0.0 | 6.4 | 0.00 | 0.00 | 0.00 | 35 | 1005.6 |
| 20260504225558 | 20 | 0 | 0.0 | 1.6 | 0.00 | 0.00 | 0.00 | 35 | 1005.7 |
| 20260504225059 | 20 | 0 | 0.0 | 4.8 | 0.00 | 0.00 | 0.00 | 33 | 1005.7 |
| 20260504224558 | 20 | 0 | 0.0 | 4.8 | 0.00 | 0.00 | 0.00 | 34 | 1005.7 |
| 20260504224100 | 20 | 0 | 0.0 | 4.8 | 0.00 | 0.00 | 0.00 | 34 | 1005.8 |
| 20260504223602 | 20 | 0 | 0.0 | 14.5 | 0.00 | 0.00 | 0.00 | 34 | 1005.6 |
| 20260504223122 | 20 | 0 | 0.0 | 14.5 | 0.00 | 0.00 | 0.00 | 34 | 1005.6 |
| 20260504222602 | 20 | 0 | 1.6 | 9.7 | 0.00 | 0.00 | 0.00 | 34 | 1005.7 |
| 20260504222058 | 19 | 0 | 0.0 | 6.4 | 0.00 | 0.00 | 0.00 | 35 | 1005.8 |
| 20260504221603 | 19 | 0 | 0.0 | 4.8 | 0.00 | 0.00 | 0.00 | 36 | 1005.7 |
| 20260504221057 | 19 | 0 | 0.0 | 4.8 | 0.00 | 0.00 | 0.00 | 35 | 1005.7 |
| 20260504220558 | 20 | 0 | 0.0 | 4.8 | 0.00 | 0.00 | 0.00 | 34 | 1005.8 |
| 20260504220110 | 20 | 0 | 0.0 | 3.2 | 0.00 | 0.00 | 0.00 | 36 | 1005.8 |
| 20260504215558 | 20 | 0 | 0.0 | 8.0 | 0.00 | 0.00 | 0.00 | 34 | 1005.9 |
| 20260504215058 | 20 | 0 | 0.0 | 6.4 | 0.00 | 0.00 | 0.00 | 34 | 1005.9 |
| 20260504214632 | 20 | 211 | 0.0 | 11.3 | 0.00 | 0.00 | 0.00 | 36 | 1005.9 |
| 20260504214102 | 20 | 200 | 0.0 | 11.3 | 0.00 | 0.00 | 0.00 | 36 | 1005.9 |
| 20260504213558 | 20 | 190 | 0.0 | 9.7 | 0.00 | 0.00 | 0.00 | 36 | 1006.0 |
| 20260504213105 | 20 | 188 | 0.0 | 9.7 | 0.00 | 0.00 | 0.00 | 38 | 1005.9 |
| 20260504212555 | 19 | 0 | 0.0 | 6.4 | 0.00 | 0.00 | 0.00 | 37 | 1005.9 |
| 20260504212100 | 20 | 169 | 0.0 | 9.7 | 0.00 | 0.00 | 0.00 | 36 | 1005.9 |
| 20260504211652 | 20 | 0 | 0.0 | 12.9 | 0.00 | 0.00 | 0.00 | 37 | 1006.0 |
| 20260504211102 | 20 | 0 | 0.0 | 12.9 | 0.00 | 0.00 | 0.00 | 35 | 1006.0 |
| 20260504210601 | 20 | 0 | 0.0 | 9.7 | 0.00 | 0.00 | 0.00 | 36 | 1006.0 |
| 20260504210101 | 20 | 0 | 0.0 | 9.7 | 0.00 | 0.00 | 0.00 | 37 | 1006.0 |
| 20260504205601 | 21 | 0 | 1.6 | 9.7 | 0.00 | 0.00 | 0.00 | 36 | 1006.1 |
| 20260504205059 | 21 | 0 | 0.0 | 9.7 | 0.00 | 0.00 | 0.00 | 37 | 1006.1 |
| 20260504204604 | 20 | 0 | 0.0 | 9.7 | 0.00 | 0.00 | 0.00 | 39 | 1006.0 |
| 20260504204059 | 20 | 0 | 0.0 | 8.0 | 0.00 | 0.00 | 0.00 | 38 | 1006.0 |
| 20260504203557 | 20 | 251 | 0.0 | 8.0 | 0.00 | 0.00 | 0.00 | 37 | 1006.2 |
| 20260504203107 | 19 | 0 | 0.0 | 8.0 | 0.00 | 0.00 | 0.00 | 37 | 1006.3 |
| 20260504202557 | 20 | 0 | 0.0 | 4.8 | 0.00 | 0.00 | 0.00 | 37 | 1006.4 |
| 20260504202059 | 20 | 0 | 0.0 | 4.8 | 0.00 | 0.00 | 0.00 | 36 | 1006.4 |
| 20260504201612 | 20 | 0 | 0.0 | 4.8 | 0.00 | 0.00 | 0.00 | 36 | 1006.4 |
| 20260504201059 | 20 | 0 | 0.0 | 12.9 | 0.00 | 0.00 | 0.00 | 36 | 1006.4 |
| 20260504200558 | 20 | 244 | 0.0 | 12.9 | 0.00 | 0.00 | 0.00 | 38 | 1006.5 |
| 20260504200059 | 20 | 0 | 0.0 | 8.0 | 0.00 | 0.00 | 0.00 | 42 | 1006.6 |
| 20260504195559 | 20 | 0 | 0.0 | 6.4 | 0.00 | 0.00 | 0.00 | 38 | 1006.7 |
| 20260504195059 | 19 | 0 | 0.0 | 6.4 | 0.00 | 0.00 | 0.00 | 38 | 1006.7 |
| 20260504194557 | 19 | 0 | 0.0 | 1.6 | 0.00 | 0.00 | 0.00 | 39 | 1006.8 |
| 20260504194059 | 19 | 0 | 0.0 | 8.0 | 0.00 | 0.00 | 0.00 | 39 | 1006.9 |
| 20260504193557 | 20 | 0 | 0.0 | 8.0 | 0.00 | 0.00 | 0.00 | 38 | 1006.9 |
| 20260504193109 | 20 | 0 | 1.6 | 8.0 | 0.00 | 0.00 | 0.00 | 37 | 1006.9 |
| 20260504192558 | 21 | 0 | 0.0 | 4.8 | 0.00 | 0.00 | 0.00 | 39 | 1006.9 |
| 20260504192057 | 21 | 0 | 0.0 | 9.7 | 0.00 | 0.00 | 0.00 | 38 | 1006.9 |
| 20260504191611 | 20 | 0 | 0.0 | 9.7 | 0.00 | 0.00 | 0.00 | 38 | 1006.9 |
| 20260504191058 | 20 | 148 | 0.0 | 8.0 | 0.00 | 0.00 | 0.00 | 41 | 1007.0 |
| 20260504190559 | 20 | 0 | 0.0 | 11.3 | 0.00 | 0.00 | 0.00 | 37 | 1007.1 |
| 20260504190108 | 21 | 134 | 0.0 | 11.3 | 0.00 | 0.00 | 0.00 | 37 | 1007.3 |
| 20260504185558 | 20 | 94 | 0.0 | 8.0 | 0.00 | 0.00 | 0.00 | 37 | 1007.1 |
| 20260504185058 | 20 | 173 | 0.0 | 6.4 | 0.00 | 0.00 | 0.00 | 40 | 1007.2 |
| 20260504184557 | 20 | 0 | 0.0 | 8.0 | 0.00 | 0.00 | 0.00 | 41 | 1007.1 |
| 20260504184055 | 19 | 0 | 1.6 | 8.0 | 0.00 | 0.00 | 0.00 | 40 | 1007.2 |
| 20260504183602 | 20 | 0 | 0.0 | 9.7 | 0.00 | 0.00 | 0.00 | 38 | 1007.2 |
| 20260504183058 | 20 | 0 | 0.0 | 9.7 | 0.00 | 0.00 | 0.00 | 42 | 1007.2 |
| 20260504182558 | 20 | 252 | 0.0 | 9.7 | 0.00 | 0.00 | 0.00 | 41 | 1007.2 |
| 20260504182058 | 20 | 0 | 1.6 | 14.5 | 0.00 | 0.00 | 0.00 | 41 | 1007.2 |
| 20260504181603 | 19 | 253 | 1.6 | 14.5 | 0.00 | 0.00 | 0.00 | 42 | 1007.4 |
| 20260504181058 | 19 | 202 | 1.6 | 14.5 | 0.00 | 0.00 | 0.00 | 40 | 1007.4 |
| 20260504180557 | 20 | 173 | 0.0 | 12.9 | 0.00 | 0.00 | 0.00 | 41 | 1007.3 |
| 20260504180140 | 19 | 0 | 1.6 | 12.9 | 0.00 | 0.00 | 0.00 | 44 | 1007.2 |
| 20260504175559 | 19 | 0 | 0.0 | 3.2 | 0.00 | 0.00 | 0.00 | 44 | 1007.3 |
| 20260504175059 | 19 | 0 | 0.0 | 4.8 | 0.00 | 0.00 | 0.00 | 43 | 1007.3 |
| 20260504174609 | 18 | 0 | 0.0 | 4.8 | 0.00 | 0.00 | 0.00 | 46 | 1007.4 |
| 20260504174059 | 18 | 0 | 0.0 | 8.0 | 0.00 | 0.00 | 0.00 | 44 | 1007.4 |
| 20260504173603 | 17 | 141 | 0.0 | 8.0 | 0.00 | 0.00 | 0.00 | 45 | 1007.4 |
| 20260504173059 | 17 | 0 | 0.0 | 6.4 | 0.00 | 0.00 | 0.00 | 44 | 1007.5 |
| 20260504172558 | 18 | 0 | 0.0 | 17.7 | 0.00 | 0.00 | 0.00 | 45 | 1007.5 |
| 20260504172058 | 18 | 182 | 1.6 | 17.7 | 0.00 | 0.00 | 0.00 | 44 | 1007.4 |
| 20260504171558 | 18 | 0 | 0.0 | 8.0 | 0.00 | 0.00 | 0.00 | 44 | 1007.5 |
| 20260504171059 | 18 | 238 | 0.0 | 6.4 | 0.00 | 0.00 | 0.00 | 44 | 1007.5 |
| 20260504170558 | 18 | 0 | 0.0 | 12.9 | 0.00 | 0.00 | 0.00 | 43 | 1007.6 |
| 20260504151101 | 15 | 0 | 0.0 | 12.9 | 0.00 | 0.00 | 0.00 | 50 | 1008.7 |
| 20260504150558 | 14 | 0 | 0.0 | 8.0 | 0.00 | 0.00 | 0.00 | 51 | 1008.7 |
| 20260504141059 | 12 | 0 | 0.0 | 11.3 | 0.00 | 0.00 | 0.00 | 52 | 1008.8 |
| 20260504140558 | 12 | 0 | 0.0 | 14.5 | 0.00 | 0.00 | 0.00 | 52 | 1008.8 |
| 20260504140300 | 12 | 0 | 1.6 | 14.5 | 0.00 | 0.00 | 0.00 | 51 | 1008.8 |
| 20260504130558 | 10 | 173 | 0.0 | 11.3 | 0.00 | 0.00 | 0.00 | 56 | 1009.2 |
| 20260504120244 | -17 | 0.0 | 0.0 | 0.00 | 0.00 | 0.00 | 1009.4 | ||
| 20260504110559 | -17 | 0.0 | 0.0 | 0.00 | 0.00 | 0.00 | 1009.4 | ||
| 20260504100557 | -17 | 0.0 | 0.0 | 0.00 | 0.00 | 0.00 | 1009.3 | ||
| 20260504090121 | -17 | 0.0 | 0.0 | 0.00 | 0.00 | 0.00 | 1009.4 | ||
| 20260504081556 | -17 | 0.0 | 0.0 | 0.00 | 0.00 | 0.00 | 1009.5 | ||
| 20260504081054 | -17 | 0.0 | 0.0 | 0.00 | 0.00 | 0.00 | 1009.5 | ||
| 20260504080554 | -17 | 0.0 | 0.0 | 0.00 | 0.00 | 0.00 | 1009.4 | ||
| 20260504070226 | -17 | 0.0 | 0.0 | 0.00 | 0.00 | 0.00 | 1009.5 | ||
| 20260504050553 | -17 | 0.0 | 0.0 | 0.00 | 0.00 | 0.00 | 1009.8 | ||
| 20260504045554 | -17 | 0.0 | 0.0 | 0.00 | 0.00 | 0.00 | 1009.8 | ||
| 20260504045057 | -17 | 0.0 | 0.0 | 0.00 | 0.00 | 0.00 | 1009.7 | ||
| 20260504044557 | -17 | 0.0 | 0.0 | 0.00 | 0.00 | 0.00 | 1009.8 | ||
| 20260504044054 | -17 | 0.0 | 0.0 | 0.00 | 0.00 | 0.00 | 1009.7 | ||
| 20260504043557 | -17 | 0.0 | 0.0 | 0.00 | 0.00 | 0.00 | 1009.8 | ||
| 20260504043103 | -17 | 0.0 | 0.0 | 0.00 | 0.00 | 0.00 | 1009.9 | ||
| 20260504042554 | -17 | 0.0 | 0.0 | 0.00 | 0.00 | 0.00 | 1009.9 | ||
| 20260504042053 | -17 | 0.0 | 0.0 | 0.00 | 0.00 | 0.00 | 1009.9 | ||
| 20260504041557 | -17 | 0.0 | 0.0 | 0.00 | 0.00 | 0.00 | 1009.9 | ||
| 20260504041053 | -17 | 0.0 | 0.0 | 0.00 | 0.00 | 0.00 | 1009.9 | ||
| 20260504040557 | -17 | 0.0 | 0.0 | 0.00 | 0.00 | 0.00 | 1010.0 | ||
| 20260504040131 | -17 | 0.0 | 0.0 | 0.00 | 0.00 | 0.00 | 1010.0 | ||
| 20260504035555 | -17 | 0.0 | 0.0 | 0.00 | 0.00 | 0.00 | 1010.0 | ||
| 20260504035100 | -17 | 0.0 | 0.0 | 0.00 | 0.00 | 0.00 | 1009.9 | ||
| 20260504034602 | -17 | 0.0 | 0.0 | 0.00 | 0.00 | 0.00 | 1010.0 | ||
| 20260504034054 | -17 | 0.0 | 0.0 | 0.00 | 0.00 | 0.00 | 1009.9 | ||
| 20260504033554 | -17 | 0.0 | 0.0 | 0.00 | 0.00 | 0.00 | 1010.0 | ||
| 20260504033056 | -17 | 0.0 | 0.0 | 0.00 | 0.00 | 0.00 | 1010.1 | ||
| 20260504032554 | -17 | 0.0 | 0.0 | 0.00 | 0.00 | 0.00 | 1010.1 | ||
| 20260504032057 | -17 | 0.0 | 0.0 | 0.00 | 0.00 | 0.00 | 1010.2 | ||
| 20260504031606 | -17 | 0.0 | 0.0 | 0.00 | 0.00 | 0.00 | 1010.3 | ||
| 20260504031100 | -17 | 0.0 | 0.0 | 0.00 | 0.00 | 0.00 | 1010.3 | ||
| 20260504030557 | -17 | 0.0 | 0.0 | 0.00 | 0.00 | 0.00 | 1010.4 | ||
| 20260504030058 | -17 | 0.0 | 0.0 | 0.00 | 0.00 | 0.00 | 1010.4 | ||
| 20260504025600 | -17 | 0.0 | 0.0 | 0.00 | 0.00 | 0.00 | 1010.4 | ||
| 20260504025059 | -17 | 0.0 | 0.0 | 0.00 | 0.00 | 0.00 | 1010.5 | ||
| 20260504024603 | -17 | 0.0 | 0.0 | 0.00 | 0.00 | 0.00 | 1010.6 | ||
| 20260504024058 | -17 | 0.0 | 0.0 | 0.00 | 0.00 | 0.00 | 1010.7 | ||
| 20260504023558 | -17 | 0.0 | 0.0 | 0.00 | 0.00 | 0.00 | 1010.8 | ||
| 20260504023057 | -17 | 0.0 | 0.0 | 0.00 | 0.00 | 0.00 | 1011.0 | ||
| 20260504022558 | -17 | 0.0 | 0.0 | 0.00 | 0.00 | 0.00 | 1010.8 | ||
| 20260504022058 | -17 | 0.0 | 0.0 | 0.00 | 0.00 | 0.00 | 1010.9 | ||
| 20260504021556 | -17 | 0.0 | 0.0 | 0.00 | 0.00 | 0.00 | 1010.9 | ||
| 20260504021101 | -17 | 0.0 | 0.0 | 0.00 | 0.00 | 0.00 | 1010.8 | ||
| 20260504020600 | -17 | 0.0 | 0.0 | 0.00 | 0.00 | 0.00 | 1010.7 | ||
| 20260504020111 | -17 | 0.0 | 0.0 | 0.00 | 0.00 | 0.00 | 1010.8 | ||
| 20260504015601 | -17 | 0.0 | 0.0 | 0.00 | 0.00 | 0.00 | 1010.7 | ||
| 20260504015057 | -17 | 0.0 | 0.0 | 0.00 | 0.00 | 0.00 | 1010.8 | ||
| 20260504014603 | -17 | 0.0 | 0.0 | 0.00 | 0.00 | 0.00 | 1010.7 | ||
| 20260504014057 | -17 | 0.0 | 0.0 | 0.00 | 0.00 | 0.00 | 1010.7 | ||
| 20260504013559 | -17 | 0.0 | 0.0 | 0.00 | 0.00 | 0.00 | 1010.7 |